Jaffrey, NH

3:28 AM EDT on August 26, 2016 (GMT -0400)
Jaffrey Airport-Silver Ranch

Weather History for KAFN - February, 2014

Change the Weather History Date:

Wednesday, February 5, 2014

  Actual Average Record
Temperature  
Mean Temperature 22 °F -  
Max Temperature 26 °F 31 °F 53 °F (2005)
Min Temperature 19 °F 12 °F -2 °F (2009)
Degree Days  
Heating Degree Days 42    
Moisture  
Dew Point 18 °F    
Average Humidity 84    
Maximum Humidity 93    
Minimum Humidity 55    
Precipitation  
Precipitation 0.80 in - - ()
Sea Level Pressure  
Sea Level Pressure 29.90 in    
Wind  
Wind Speed 3 mph (North)    
Max Wind Speed 8 mph    
Max Gust Speed -    
Visibility 3 miles    
Events Fog , Snow    
Averages and records for this station are not official NWS values.
T = Trace of Precipitation, MM = Missing Value Source: NWS Daily Summary

Daily Weather History Graph

Daily Weather History Graph

Search for Another Location

Airport or City:

Trip Planner

Search our weather history database for the weather conditions in past years. The results will help you decide how hot, cold, wet, or windy it might be!

Date:

Astronomy

Feb. 05, 2014 Rise Set
Actual Time 6:58 AM EST 5:06 PM EST
Civil Twilight 6:28 AM EST 5:36 PM EST
Nautical Twilight 5:54 AM EST 6:09 PM EST
Astronomical Twilight 5:21 AM EST 6:42 PM EST
Moon 10:01 AM EST (2/5) No Moon Set
Length of Visible Light 11h 07m
Length of Day
10h 08m
Waxing Crescent, 39% of the Moon is Illuminated
Feb 5
Waxing Crescent
Feb 6
First Quarter
Feb 14
Full
Feb 22
Last Quarter
Mar 1
New

Hourly Weather History & Observations

Time (EST) Temp. Windchill Dew Point Humidity Pressure Visibility Wind Dir Wind Speed Gust Speed Precip Events Conditions
12:52 AM 26.1 °F - 18.0 °F 71% 30.28 in 10.0 mi Calm Calm - N/A   Partly Cloudy
1:52 AM 25.0 °F - 19.0 °F 78% 30.26 in 10.0 mi Calm Calm - N/A   Clear
2:52 AM 26.1 °F - 15.1 °F 63% 30.27 in 10.0 mi Calm Calm - N/A   Overcast
3:52 AM 25.0 °F 20.7 °F 14.0 °F 63% 30.22 in 10.0 mi Variable 3.5 mph - N/A   Overcast
4:52 AM 25.0 °F - 10.9 °F 55% 30.19 in 10.0 mi Calm Calm - N/A   Overcast
5:14 AM 24.1 °F - 12.9 °F 62% 30.12 in 3.0 mi Calm Calm - 0.00 in Snow Light Snow
5:16 AM 24.1 °F - 14.0 °F 65% 30.13 in 1.8 mi Calm Calm - 0.00 in Snow Light Snow
5:19 AM 24.1 °F - 16.0 °F 71% 30.13 in 1.0 mi North - - 0.00 in Snow Light Snow
5:23 AM 23.0 °F - 17.1 °F 78% 30.13 in 0.8 mi Calm Calm - 0.01 in Snow Light Snow
5:37 AM 21.9 °F 17.2 °F 19.0 °F 89% 30.13 in 0.5 mi Variable 3.5 mph - 0.04 in Fog , Snow Snow
5:50 AM 21.2 °F - 19.4 °F 93% 30.12 in 0.2 mi Calm Calm - 0.07 in Fog , Snow Heavy Snow
5:52 AM 21.9 °F 17.2 °F 19.0 °F 89% 30.18 in 0.2 mi Variable 3.5 mph - 0.07 in Fog , Snow Snow
6:17 AM 21.9 °F - 19.0 °F 89% 30.11 in 0.5 mi Calm Calm - 0.05 in Fog , Snow Snow
6:52 AM 21.9 °F 15.7 °F 19.0 °F 89% 30.17 in 0.2 mi North 4.6 mph - 0.12 in Fog , Snow Snow
7:15 AM 21.9 °F 17.2 °F 19.0 °F 89% 30.09 in 0.2 mi North 3.5 mph - 0.05 in Fog , Snow Snow
7:52 AM 21.9 °F - 19.0 °F 89% 30.14 in 0.2 mi Calm Calm - 0.13 in Fog , Snow Heavy Snow
8:37 AM 21.9 °F 15.7 °F 19.0 °F 89% 30.02 in 0.2 mi Variable 4.6 mph - 0.11 in Fog , Snow Snow
8:44 AM 21.9 °F 17.2 °F 19.0 °F 89% 30.01 in 0.2 mi Variable 3.5 mph - 0.12 in Fog , Snow Snow
8:52 AM 21.9 °F 15.7 °F 19.0 °F 89% 30.07 in 0.2 mi Variable 4.6 mph - 0.14 in Fog , Snow Snow
9:52 AM 21.9 °F 15.7 °F 19.0 °F 89% 30.02 in 0.2 mi Variable 4.6 mph - 0.07 in Fog , Snow Snow
10:40 AM 23.0 °F 15.8 °F 19.0 °F 85% 29.90 in 0.5 mi Variable 5.8 mph - 0.06 in Fog , Snow Snow
10:52 AM 23.0 °F 13.9 °F 18.0 °F 81% 29.95 in 0.5 mi NNE 8.1 mph - 0.06 in Snow Snow
11:13 AM 24.1 °F 17.0 °F 19.0 °F 81% 29.88 in 1.2 mi Variable 5.8 mph - 0.01 in Snow Light Snow
11:18 AM 24.1 °F 18.2 °F 19.9 °F 84% 29.87 in 1.0 mi Variable 4.6 mph - 0.01 in Snow Light Snow
11:21 AM 24.1 °F 19.7 °F 19.9 °F 84% 29.86 in 0.8 mi Variable 3.5 mph - 0.01 in Snow Light Snow
11:31 AM 23.0 °F 17.0 °F 19.0 °F 85% 29.85 in 0.8 mi North 4.6 mph - 0.02 in Snow Light Snow
11:43 AM 23.0 °F 17.0 °F 19.0 °F 85% 29.82 in 1.0 mi Variable 4.6 mph - 0.02 in Snow Light Snow
11:52 AM 23.0 °F 15.8 °F 19.0 °F 85% 29.86 in 1.0 mi Variable 5.8 mph - 0.02 in Snow Light Snow
12:08 PM 21.9 °F 15.7 °F 18.0 °F 85% 29.78 in 0.8 mi Variable 4.6 mph - 0.01 in Snow Light Snow
12:52 PM 21.9 °F 14.5 °F 19.0 °F 89% 29.77 in 0.5 mi Variable 5.8 mph - 0.03 in Fog , Snow Snow
1:09 PM 21.9 °F 14.5 °F 18.0 °F 85% 29.69 in 0.2 mi Variable 5.8 mph - 0.01 in Fog , Snow Snow
1:52 PM 21.9 °F 14.5 °F 18.0 °F 85% 29.71 in 0.2 mi Variable 5.8 mph - 0.05 in Fog , Snow Snow
2:13 PM 21.0 °F 13.4 °F 17.1 °F 85% 29.65 in 0.5 mi Variable 5.8 mph - 0.01 in Fog , Snow Light Snow
2:52 PM 21.0 °F 13.4 °F 18.0 °F 88% 29.68 in 0.5 mi Variable 5.8 mph - 0.03 in Fog , Snow Light Snow
3:38 PM 21.9 °F 14.5 °F 18.0 °F 85% 29.69 in 0.2 mi Variable 5.8 mph - 0.04 in Fog , Snow Snow
3:52 PM 21.0 °F 12.4 °F 18.0 °F 88% 29.74 in 0.2 mi Variable 6.9 mph - 0.05 in Fog , Snow Snow
4:19 PM 21.0 °F 16.2 °F 18.0 °F 88% 29.66 in 0.5 mi North 3.5 mph - 0.01 in Fog , Snow Light Snow
4:50 PM 21.2 °F 13.6 °F 17.6 °F 86% 29.67 in 1.0 mi Variable 5.8 mph - 0.02 in Snow Light Snow
4:52 PM 21.0 °F 12.4 °F 17.1 °F 85% 29.73 in 1.0 mi Variable 6.9 mph - 0.02 in Snow Light Snow
4:58 PM 21.0 °F 14.6 °F 17.1 °F 85% 29.66 in 1.2 mi Variable 4.6 mph - 0.00 in Snow Light Snow
5:11 PM 21.0 °F 13.4 °F 17.1 °F 85% 29.66 in 1.5 mi NNE 5.8 mph - 0.00 in Snow Light Snow
5:17 PM 21.0 °F 13.4 °F 17.1 °F 85% 29.66 in 2.0 mi Variable 5.8 mph - 0.00 in Snow Light Snow
5:28 PM 21.0 °F 12.4 °F 17.1 °F 85% 29.66 in 3.0 mi North 6.9 mph - 0.00 in Snow Light Snow
5:52 PM 21.0 °F 13.4 °F 17.1 °F 85% 29.73 in 3.0 mi Variable 5.8 mph - 0.00 in Snow Light Snow
6:38 PM 19.9 °F 12.1 °F 17.1 °F 89% 29.67 in 8.0 mi Variable 5.8 mph - 0.00 in Snow Light Snow
6:52 PM 19.9 °F 12.1 °F 17.1 °F 89% 29.74 in 9.0 mi Variable 5.8 mph - 0.00 in Snow Light Snow
7:08 PM 19.9 °F 13.4 °F 17.1 °F 89% 29.68 in 9.0 mi Variable 4.6 mph - 0.00 in Snow Light Snow
7:52 PM 19.9 °F 12.1 °F 17.1 °F 89% 29.78 in 10.0 mi North 5.8 mph - 0.00 in   Overcast
8:52 PM 21.0 °F 13.4 °F 16.0 °F 81% 29.82 in 3.0 mi North 5.8 mph - 0.01 in Snow Light Snow
8:59 PM 19.9 °F 14.9 °F 17.1 °F 89% 29.76 in 2.5 mi Variable 3.5 mph - 0.00 in Snow Light Snow
9:07 PM 21.0 °F 16.2 °F 17.1 °F 85% 29.76 in 3.0 mi Variable 3.5 mph - 0.00 in Snow Light Snow
9:15 PM 21.0 °F 14.6 °F 17.1 °F 85% 29.77 in 2.0 mi North 4.6 mph - 0.00 in Snow Light Snow
9:28 PM 21.0 °F - 17.1 °F 85% 29.77 in 2.5 mi Calm Calm - 0.00 in Snow Light Snow
9:42 PM 19.9 °F 14.9 °F 17.1 °F 89% 29.78 in 3.0 mi NNE 3.5 mph - 0.00 in Snow Light Snow
9:52 PM 21.0 °F - 17.1 °F 85% 29.85 in 4.0 mi Calm Calm - 0.00 in Snow Light Snow
10:52 PM 21.0 °F - 17.1 °F 85% 29.90 in 3.0 mi Calm Calm - 0.00 in Snow Light Snow
11:52 PM 19.9 °F - 17.1 °F 89% 29.96 in 7.0 mi Calm Calm - 0.00 in   Overcast